www.pogodaiklimat.ru

Погода и климат >> Архив погоды >> Иран >> Бендер-Ленге


ПОГОДА в Бендер-Ленге

  • Прогноз погоды в Бендер-Ленге
  • Монитор погоды в Бендер-Ленге

АРХИВ ПОГОДЫ в Бендер-Ленге

Время (UTC), дата Ветер
(напр.,м/с)
 
Видим.   Явления Облачность Т
(С)
Тd
(С)
f
(%)
Тe
(С)
Тes
(С)
Комфортность P
(гПа)
Po
(гПа)
Тmin
(С)
Tmax
(С)
R
(мм)
R24
(мм)
S
(см)
12 16.07 Ю 3 7000 м мгла ясно +36.9 +27.9 60 +57 +64 опасность
перегрева
994.1 992.0
15 16.07 З 3 7000 м мгла ясно +34.0 +27.1 67 +52 +52 опасность
перегрева
993.8 991.7 +37.9
18 16.07 Ю 3 7000 м мгла ясно +32.9 +27.6 74 +53 +53 опасность
перегрева
995.5 993.4
21 16.07 В 2 7000 м мгла 1/1 900 м
[Cu hum]
+32.3 +27.7 77 +52 +52 опасность
перегрева
995.5 993.4
00 17.07 В 5 5000 м мгла ясно +32.4 +27.7 76 +52 +52 опасность
перегрева
995.5 993.4
03 17.07 В 4 4000 м мгла 3/3 900 м
[Sc diur, vesp]
+33.3 +26.9 69 +51 +52 опасность
перегрева
996.4 994.3 +32.1
06 17.07 В 4 4000 м мгла 3/3 900 м
[Sc diur, vesp]
+35.7 +28.6 67 +58 +66 опасность
перегрева
997.5 995.4
09 17.07 В 5 5000 м мгла ясно +37.4 +27.1 56 +55 +67 опасность
перегрева
997.0 994.9
12 17.07 Ю 4 6000 м мгла ясно +38.8 +26.9 51 +56 +62 опасность
перегрева
995.6 993.5
15 17.07 ЮЗ 3 6000 м мгла 3/3 900 м
[Cu hum]
+35.2 +26.6 61 +52 +52 опасность
перегрева
995.6 993.5 +40.1 666
18 17.07 З 3 6000 м мгла ясно +33.4 +27.4 71 +53 +53 опасность
перегрева
996.6 994.4
21 17.07 штиль 0 6000 м мгла ясно +33.0 +26.8 70 +51 +51 опасность
перегрева
996.2 994.1
00 18.07 штиль 0 6000 м мгла ясно +31.7 +27.6 79 +51 +51 опасность
перегрева
996.1 994.0
03 18.07 В 6 4000 м мгла 4/1 900 м
[Cu hum Ac trans Ci fib]
+32.9 +28.8 79 +56 +56 опасность
перегрева
997.2 995.1 +31.3 666
06 18.07 В 5 4000 м мгла ясно +35.1 +28.0 67 +56 +64 опасность
перегрева
998.1 996.0
09 18.07 Ю 5 4000 м мгла ясно +38.2 +28.5 58 +60 +71 опасность
перегрева
998.0 995.9 666
12 18.07 ЮЗ 5 4000 м мгла ясно +36.9 +26.7 56 +54 +59 опасность
перегрева
995.9 993.7
15 18.07 З 2 6000 м мгла ясно +36.6 +21.6 42 +44 +44 опасность
перегрева
995.7 993.5 +38.9
18 18.07 З 3 5000 м мгла 3/0
[Ci fib]
+33.5 +27.2 70 +52 +52 опасность
перегрева
996.3 994.1
21 18.07 штиль 0 5000 м мгла ясно +33.5 +29.0 77 +57 +57 опасность
перегрева
996.0 993.9
00 19.07 штиль 0 5000 м мгла ясно +32.9 +27.6 74 +53 +53 опасность
перегрева
996.1 994.0
03 19.07 В 3 4000 м мгла ясно +33.7 +28.2 73 +55 +57 опасность
перегрева
997.0 994.9 +32.8
06 19.07 В 5 5000 м мгла ясно +35.4 +28.0 66 +56 +65 опасность
перегрева
998.7 996.6
09 19.07 Ю 6 5000 м мгла ясно +38.4 +28.1 56 +59 +67 опасность
перегрева
998.0 995.9
12 19.07 ЮЗ 4 5000 м мгла ясно +38.2 +26.7 52 +55 +61 опасность
перегрева
997.1 994.9
15 19.07 штиль 0 6000 м мгла ясно +35.2 +28.1 67 +56 +56 опасность
перегрева
996.6 994.5 +38.8
18 19.07 штиль 0 7000 м мгла ясно +34.6 +28.0 69 +56 +56 опасность
перегрева
998.1 995.9
21 19.07 штиль 0 7000 м мгла 3/0
[Ac trans]
+34.6 +27.3 66 +53 +53 опасность
перегрева
998.0 995.9
00 20.07 ЮВ 8 5000 м мгла 4/0
[Ac trans]
+32.2 +27.0 74 +50 +50 опасность
перегрева
997.7 995.5
03 20.07 В 6 4000 м мгла ясно +33.0 +27.7 74 +53 +54 опасность
перегрева
998.9 996.7 +32.0
06 20.07 В 6 5000 м мгла ясно +35.0 +28.0 67 +56 +62 опасность
перегрева
1000.5 998.4
09 20.07 ЮВ 6 4000 м мгла 1/0
[Ac und]
+38.1 +27.2 54 +56 +64 опасность
перегрева
999.2 997.1 666
12 20.07 Ю 3 4000 м мгла ясно +37.7 +26.8 54 +55 +62 опасность
перегрева
997.6 995.5
15 20.07 ЮЗ 3 4000 м мгла ясно +35.8 +26.5 59 +53 +53 опасность
перегрева
997.1 995.0 +39.1 666
18 20.07 штиль 0 4000 м мгла ясно +35.3 +26.1 59 +51 +51 опасность
перегрева
998.2 996.1
21 20.07 В 3 4000 м мгла ясно +33.9 +28.5 74 +56 +56 опасность
перегрева
998.4 996.3
00 21.07 В 5 4000 м мгла 3/0
[Ac trans]
+32.9 +28.6 78 +55 +55 опасность
перегрева
998.3 996.2
03 21.07 В 5 3500 м мгла 8/0
[Ac As]
+33.4 +27.7 72 +53 +54 опасность
перегрева
999.3 997.2 +32.6 666
06 21.07 В 6 3000 м мгла 1/0
[Ac trans]
+35.1 +28.1 67 +56 +62 опасность
перегрева
1000.2 998.1
09 21.07 Ю 3 3000 м мгла ясно +38.8 +27.5 53 +57 +75 опасность
перегрева
999.1 997.0
12 21.07 Ю 3 3500 м мгла ясно +37.7 +26.6 53 +54 +62 опасность
перегрева
997.0 994.9
15 21.07 ЮЗ 2 4000 м мгла ясно +35.7 +26.7 60 +53 +53 опасность
перегрева
997.2 995.1 +39.5
18 21.07 З 2 4000 м мгла ясно +34.9 +27.9 67 +55 +55 опасность
перегрева
997.4 995.3
21 21.07 С 3 4000 м мгла 5/0
[Ac trans]
+34.7 +28.1 69 +56 +56 опасность
перегрева
997.4 995.3
00 22.07 В 4 4000 м мгла 4/0
[Ac trans]
+33.8 +29.1 77 +58 +58 опасность
перегрева
997.2 995.1
03 22.07 В 5 4000 м мгла ясно +33.4 +28.3 75 +55 +56 опасность
перегрева
997.8 995.7 +32.7 666
06 22.07 В 7 3500 м пыльный позёмок ясно +35.6 +27.5 63 +55 +59 опасность
перегрева
998.7 996.6
09 22.07 В 6 5000 м мгла ясно +36.8 +28.2 62 +58 +67 опасность
перегрева
997.6 995.5
12 22.07 Ю 3 5000 м мгла ясно +36.6 +27.0 58 +54 +62 опасность
перегрева
996.3 994.2
15 22.07 З 5 5000 м мгла ясно +36.0 +26.1 57 +52 +52 опасность
перегрева
996.1 994.0 +38.8 666
18 22.07 З 3 5000 м мгла ясно +34.6 +28.6 71 +57 +57 опасность
перегрева
996.1 994.0
21 22.07 штиль 0 6000 м мгла ясно +34.2 +25.3 60 +48 +48 опасность
перегрева
996.4 994.3
00 23.07 В 3 5000 м мгла ясно +33.4 +29.0 78 +57 +57 опасность
перегрева
997.1 994.9
03 23.07 ЮВ 5 4000 м мгла ясно +33.0 +28.2 76 +54 +55 опасность
перегрева
996.8 994.6 +32.0 666
06 23.07 В 4 5000 м мгла ясно +34.6 +26.2 62 +51 +61 опасность
перегрева
998.4 996.3

 

Местоположение метеостанции Бендер-Ленге (Иран): широта 26.58 долгота 54.83 высота над уровнем моря 14 м.

В архиве по умолчанию представлена погода в Бендер-Ленге за последнюю неделю. Архивные данные за месяц целиком и за предыдущие месяцы, начиная с января 2011 года, Вы можете получить, выбрав интересующий диапазон дат из раскрывающегося списка и нажав кнопку "Ввод!".


*Определитесь, кто Вы:
робот инопланетянин человек

Внимание! Время в таблицах - всемирное. Для получения местного времени необходимо прибавить поправку, которая равна 3.5 ч.

Смотрите также архив погоды в соседних городах и на ближайших метеорологических станциях:

Погода на Острове Сирри (Иран) (80 км)
Погода на Острове Абу-Муса (Иран) (83 км)
Погода на Острове Киш (Иран) (85 км)
Погода в Эль-Хасабе (Оман) (146 км)
Погода в Эль-Хасаб аэропорту (Оман) (147 км)
Погода в Рай-эль-Хайма аэропорту (ОАЭ) (153 км)
Погода в Шардже (ОАЭ) (155 км)
Погода в Дубае (ОАЭ) (156 км)
Погода в Бендер-Аббасе (Иран) (169 км)
Погода в Дибе (Оман) (178 км)

Пояснения к столбцам:

Ветер - указаны скорость ветра в м/с - средняя за 10 мин, порывы в срок и между сроками (в фигурных скобках) и направление, откуда дует ветер: С - северный, СВ - северо-восточный, В - восточный, ЮВ - юго-восточный, Ю - южный, ЮЗ - юго-западный, З - западный, СЗ - северо-западный.
Видимость - горизонтальная дальность видимости в метрах или километрах. При видимости от 1 до 10 км при отсутствии осадков обычно наблюдается дымка, при ухудшении видимости до 1 км и менее - туман. В сухую погоду видимость может ухудшаться дымом, пылью или мглою.
Явления - указаны атмосферные явления, наблюдавшиеся в срок или в последний час перед сроком; фигурными скобками обозначены явления, наблюдавшиеся между сроками (за 1-3 часа до срока); квадратными скобками обозначены град или гололедные отложения с указанием их диаметра в мм.
Облачность - указаны через наклонную черту общая и нижняя облачность в баллах и высота нижней границы облаков в метрах; квадратными скобками обозначены формы облаков: Ci - перистые, Cs - перисто-слоистые, Cc - перисто-кучевые, Ac - высококучевые, As - высокослоистые, Sc - слоисто-кучевые, Ns - слоисто-дождевые, Cu - кучевые, Cb - кучево-дождевые. Подробнее классификацию облаков см. в Атласе облаков (PDF).
T - Температура воздуха - температура, измеренная на высоте 2 м над землей.
Td - Температура точки росы - температура, при понижении до которой содержащийся в воздухе водяной пар достигнет насыщения.
f - Относительная влажность воздуха - влажноcть воздуха, измеренная на высоте 2 м над землей.
Te - Эффективная температура - температура, которую ощущает одетый по сезону человек в тени. Характеристика душности погоды. При расчете учитывается влияние влажности воздуха и скорости ветра на теплоощущения человека.
Tes - Эффективная температура на солнце - температура, которую ощущает человек, с поправкой на солнечный нагрев. Характеристика знойности погоды. Зависит от высоты солнца над горизонтом, облачности и скорости ветра. Ночью, в пасмурную погоду, а также при ветре 12 м/с и более поправка равна нулю.
P - Атмосферное давление - приведенное к уровню моря атмосферное давление.
Po - Атмосферное давление - измеренное на уровне метеостанции атмосферное давление.
Tmin - Минимальная температура - минимум температуры воздуха на высоте 2 м над землей.
Tmax - Максимальная температура - максимум температуры воздуха на высоте 2 м над землей.
R - Количество осадков - Количество выпавших осадков за период времени, мм. При наведении курсора мыши на число - период времени, за который выпало указанное количество осадков.
R24 - Количество осадков - Количество выпавших осадков за 24 часа, мм.
S - Снежный покров - Высота снежного покрова, см. При наведении курсора мыши на число - состояние снежного покрова и степень покрытия местности в баллах.